�������l�o���
Date,Time,MP-1(��Sv/h),MP-2(��Sv/h),MP-3(��Sv/h),MP-4(��Sv/h),MP-5(��Sv/h),MP-6(��Sv/h),MP-7(��Sv/h),MP-8(��Sv/h),����,����(m/s),���J
2023/08/07,00:00,0.552,0.838,0.508,1.025,0.754,0.328,0.584,0.538,��,8.5,��
2023/08/07,00:10,0.553,0.838,0.507,1.026,0.753,0.329,0.583,0.539,��,8.7,��
2023/08/07,00:20,0.552,0.838,0.510,1.026,0.753,0.329,0.583,0.537,��,6.9,��
2023/08/07,00:30,0.553,0.837,0.509,1.027,0.752,0.329,0.584,0.537,��,6.3,��
2023/08/07,00:40,0.554,0.836,0.509,1.024,0.752,0.328,0.582,0.538,��,7.3,��
2023/08/07,00:50,0.552,0.838,0.508,1.024,0.754,0.329,0.584,0.537,��,7.4,��
2023/08/07,01:00,0.553,0.838,0.508,1.026,0.751,0.328,0.583,0.538,��,7.6,��
2023/08/07,01:10,0.554,0.838,0.508,1.027,0.752,0.329,0.583,0.537,��,7.1,��
2023/08/07,01:20,0.551,0.836,0.511,1.027,0.752,0.330,0.583,0.537,��,7.7,��
2023/08/07,01:30,0.552,0.838,0.509,1.026,0.753,0.328,0.583,0.538,��,8.4,��
2023/08/07,01:40,0.553,0.836,0.510,1.025,0.752,0.328,0.583,0.538,��,6.9,��
2023/08/07,01:50,0.553,0.838,0.507,1.027,0.753,0.329,0.581,0.538,��,7.5,��
2023/08/07,02:00,0.554,0.838,0.508,1.027,0.752,0.330,0.583,0.537,��,8.0,��
2023/08/07,02:10,0.553,0.836,0.507,1.026,0.753,0.328,0.583,0.538,��,9.1,��
2023/08/07,02:20,0.552,0.839,0.507,1.026,0.755,0.327,0.583,0.538,��쓌,9.9,��
2023/08/07,02:30,0.553,0.836,0.508,1.027,0.753,0.328,0.581,0.537,��쓌,9.4,��
2023/08/07,02:40,0.553,0.838,0.507,1.027,0.753,0.328,0.582,0.538,��,9.1,��
2023/08/07,02:50,0.551,0.837,0.508,1.026,0.753,0.327,0.582,0.538,��,9.1,��
2023/08/07,03:00,0.554,0.837,0.509,1.028,0.753,0.328,0.583,0.538,��,7.6,��
2023/08/07,03:10,0.553,0.838,0.508,1.027,0.754,0.330,0.583,0.538,��,8.1,��
2023/08/07,03:20,0.553,0.836,0.508,1.027,0.752,0.329,0.583,0.537,��,8.4,��
2023/08/07,03:30,0.552,0.838,0.508,1.026,0.754,0.328,0.582,0.538,��,8.8,��
2023/08/07,03:40,0.552,0.839,0.508,1.025,0.753,0.329,0.583,0.539,��,8.4,��
2023/08/07,03:50,0.551,0.837,0.508,1.027,0.754,0.327,0.584,0.537,��,6.9,��
2023/08/07,04:00,0.551,0.837,0.509,1.027,0.753,0.328,0.581,0.538,��,7.2,��
2023/08/07,04:10,0.552,0.838,0.510,1.024,0.753,0.328,0.582,0.538,��,7.5,��
2023/08/07,04:20,0.552,0.838,0.507,1.028,0.753,0.328,0.582,0.539,��,5.9,��
2023/08/07,04:30,0.551,0.837,0.509,1.027,0.754,0.327,0.583,0.538,��,7.6,��
2023/08/07,04:40,0.553,0.836,0.509,1.026,0.753,0.327,0.581,0.539,��,7.3,��
2023/08/07,04:50,0.553,0.838,0.510,1.026,0.753,0.329,0.583,0.538,��,8.2,��
2023/08/07,05:00,0.551,0.840,0.507,1.027,0.754,0.327,0.581,0.538,��,8.4,��
2023/08/07,05:10,0.552,0.837,0.509,1.026,0.752,0.328,0.582,0.537,��,8.9,��
2023/08/07,05:20,0.552,0.837,0.508,1.026,0.754,0.327,0.582,0.537,��,8.6,��
2023/08/07,05:30,0.550,0.838,0.507,1.028,0.751,0.328,0.583,0.538,��,8.2,��
2023/08/07,05:40,0.552,0.836,0.508,1.027,0.753,0.328,0.582,0.538,��,7.7,��
2023/08/07,05:50,0.551,0.836,0.508,1.027,0.753,0.328,0.583,0.538,��,7.3,��
2023/08/07,06:00,0.552,0.837,0.509,1.028,0.751,0.329,0.582,0.538,��,6.7,��
2023/08/07,06:10,0.552,0.838,0.508,1.028,0.752,0.328,0.583,0.539,��,7.4,��
2023/08/07,06:20,0.552,0.837,0.508,1.028,0.753,0.329,0.581,0.538,��,7.9,��
2023/08/07,06:30,0.553,0.835,0.508,1.029,0.752,0.330,0.583,0.538,��,7.5,��
2023/08/07,06:40,0.553,0.836,0.507,1.027,0.750,0.329,0.581,0.538,��,7.3,��
2023/08/07,06:50,0.553,0.836,0.513,1.026,0.751,0.328,0.584,0.538,��,7.8,��
2023/08/07,07:00,0.552,0.837,0.509,1.029,0.754,0.328,0.582,0.538,��,7.5,��
2023/08/07,07:10,0.552,0.838,0.508,1.027,0.751,0.328,0.582,0.538,��,8.4,��
2023/08/07,07:20,0.554,0.837,0.508,1.028,0.751,0.329,0.581,0.539,��,9.5,��
2023/08/07,07:30,0.551,0.834,0.508,1.027,0.751,0.328,0.582,0.539,��쓌,10.8,��
2023/08/07,07:40,0.552,0.836,0.509,1.026,0.751,0.328,0.584,0.538,��쓌,10.6,��
2023/08/07,07:50,0.552,0.838,0.508,1.028,0.753,0.329,0.583,0.537,��쓌,10.3,��
2023/08/07,08:00,0.552,0.836,0.507,1.027,0.751,0.330,0.584,0.537,��쓌,10.7,��
2023/08/07,08:10,0.553,0.837,0.508,1.025,0.750,0.326,0.584,0.539,��쓌,12.1,��
2023/08/07,08:20,0.551,0.837,0.507,1.026,0.751,0.328,0.584,0.537,��쓌,11.3,��
2023/08/07,08:30,0.553,0.834,0.508,1.027,0.750,0.328,0.582,0.539,��쓌,13.5,��
2023/08/07,08:40,0.550,0.835,0.508,1.027,0.752,0.327,0.582,0.538,��쓌,13.6,��
2023/08/07,08:50,0.553,0.835,0.509,1.025,0.750,0.328,0.583,0.538,��쓌,11.3,��
2023/08/07,09:00,0.552,0.838,0.510,1.026,0.748,0.328,0.585,0.535,��쓌,12.4,��
2023/08/07,09:10,0.552,0.835,0.507,1.026,0.751,0.327,0.582,0.537,��쓌,11.6,��
2023/08/07,09:20,0.552,0.835,0.508,1.027,0.749,0.329,0.582,0.538,��쓌,12.4,��
2023/08/07,09:30,0.552,0.835,0.507,1.027,0.752,0.327,0.583,0.536,��쓌,12.2,��
2023/08/07,09:40,0.552,0.832,0.507,1.027,0.754,0.327,0.582,0.537,��쓌,12.7,��
2023/08/07,09:50,0.550,0.836,0.509,1.027,0.754,0.326,0.583,0.536,��,12.8,��
2023/08/07,10:00,0.551,0.837,0.509,1.026,0.753,0.328,0.583,0.539,��쓌,14.1,��
2023/08/07,10:10,0.553,0.833,0.511,1.027,0.753,0.326,0.581,0.536,��쓌,13.9,��
2023/08/07,10:20,0.553,0.835,0.510,1.027,0.751,0.328,0.583,0.537,��쓌,12.4,��
2023/08/07,10:30,0.553,0.834,0.509,1.028,0.753,0.327,0.582,0.538,��쓌,13.0,��
2023/08/07,10:40,0.554,0.835,0.509,1.027,0.753,0.328,0.584,0.538,��쓌,12.8,��
2023/08/07,10:50,0.553,0.837,0.509,1.026,0.753,0.328,0.583,0.539,��쓌,12.7,��
2023/08/07,11:00,0.553,0.837,0.509,1.029,0.751,0.326,0.583,0.538,��쓌,13.9,��
2023/08/07,11:10,0.553,0.836,0.509,1.030,0.752,0.327,0.583,0.538,��쓌,14.6,��
2023/08/07,11:20,0.551,0.836,0.509,1.027,0.755,0.328,0.583,0.537,��쓌,14.4,��
2023/08/07,11:30,0.555,0.838,0.509,1.025,0.753,0.327,0.583,0.537,��쓌,15.2,��
2023/08/07,11:40,0.554,0.838,0.508,1.026,0.754,0.327,0.583,0.538,��쓌,12.7,��
2023/08/07,11:50,0.553,0.838,0.509,1.026,0.753,0.328,0.582,0.539,��쓌,13.1,��
2023/08/07,12:00,0.554,0.840,0.510,1.027,0.754,0.327,0.584,0.539,��쓌,15.3,�L
2023/08/07,12:10,0.552,0.839,0.507,1.027,0.754,0.329,0.584,0.538,��쓌,12.8,��
2023/08/07,12:20,0.554,0.838,0.509,1.028,0.754,0.328,0.583,0.538,��쓌,14.9,��
2023/08/07,12:30,0.552,0.840,0.510,1.028,0.755,0.329,0.582,0.538,��쓌,12.8,��
2023/08/07,12:40,0.553,0.839,0.510,1.027,0.754,0.328,0.582,0.538,��쓌,14.7,��
2023/08/07,12:50,0.555,0.840,0.509,1.027,0.753,0.328,0.583,0.539,��쓌,13.6,��
2023/08/07,13:00,0.554,0.839,0.511,1.028,0.755,0.328,0.583,0.538,��쓌,15.2,��
2023/08/07,13:10,0.553,0.839,0.509,1.031,0.754,0.329,0.584,0.538,��쓌,13.5,��
2023/08/07,13:20,0.555,0.839,0.511,1.030,0.754,0.328,0.584,0.539,��쓌,14.2,��
2023/08/07,13:30,0.556,0.839,0.510,1.029,0.753,0.328,0.585,0.540,��쓌,14.7,��
2023/08/07,13:40,0.555,0.840,0.509,1.028,0.753,0.328,0.585,0.540,��쓌,14.1,��
2023/08/07,13:50,0.555,0.839,0.509,1.029,0.753,0.329,0.584,0.540,��쓌,14.4,��
2023/08/07,14:00,0.553,0.837,0.509,1.030,0.754,0.328,0.586,0.540,��쓌,15.5,��
2023/08/07,14:10,0.555,0.838,0.509,1.030,0.756,0.328,0.587,0.541,��쓌,14.9,��
2023/08/07,14:20,0.555,0.836,0.509,1.033,0.756,0.330,0.585,0.540,��,13.8,��
2023/08/07,14:30,0.553,0.838,0.510,1.031,0.758,0.328,0.587,0.538,��쓌,14.1,��
2023/08/07,14:40,0.555,0.840,0.509,1.029,0.756,0.328,0.586,0.540,��쓌,14.1,��
2023/08/07,14:50,0.555,0.838,0.510,1.027,0.758,0.329,0.584,0.539,��쓌,15.0,��
2023/08/07,15:00,0.554,0.837,0.510,1.029,0.756,0.328,0.587,0.540,��쓌,13.5,��
2023/08/07,15:10,0.553,0.839,0.509,1.029,0.758,0.329,0.585,0.540,��쓌,14.2,��
2023/08/07,15:20,0.554,0.837,0.509,1.028,0.756,0.327,0.585,0.537,��쓌,13.8,��
2023/08/07,15:30,0.555,0.839,0.509,1.029,0.756,0.328,0.585,0.540,��,11.8,��
2023/08/07,15:40,0.555,0.838,0.511,1.029,0.756,0.326,0.585,0.537,��쓌,13.3,��
2023/08/07,15:50,0.554,0.837,0.510,1.028,0.755,0.329,0.586,0.538,��쓌,12.4,��
2023/08/07,16:00,0.554,0.840,0.509,1.030,0.755,0.328,0.584,0.539,��,10.0,��
2023/08/07,16:10,0.556,0.838,0.508,1.032,0.756,0.328,0.585,0.537,��,10.6,��
2023/08/07,16:20,0.555,0.838,0.510,1.033,0.756,0.327,0.585,0.538,��,11.0,��
2023/08/07,16:30,0.554,0.842,0.509,1.034,0.755,0.328,0.584,0.539,��,10.0,��
2023/08/07,16:40,0.556,0.839,0.509,1.032,0.755,0.327,0.583,0.537,��쓌,10.9,��
2023/08/07,16:50,0.554,0.837,0.509,1.030,0.754,0.328,0.584,0.539,��,10.7,��
2023/08/07,17:00,0.553,0.840,0.510,1.032,0.755,0.328,0.584,0.538,��,9.4,��
2023/08/07,17:10,0.553,0.839,0.510,1.030,0.755,0.328,0.581,0.538,��,9.7,��
2023/08/07,17:20,0.554,0.838,0.509,1.032,0.755,0.327,0.582,0.539,��,9.2,��
2023/08/07,17:30,0.554,0.839,0.509,1.029,0.753,0.328,0.582,0.539,��쓌,10.5,��
2023/08/07,17:40,0.555,0.839,0.510,1.030,0.755,0.327,0.585,0.538,��쓌,11.0,��
2023/08/07,17:50,0.554,0.836,0.509,1.032,0.754,0.327,0.583,0.539,��쓌,9.5,��
2023/08/07,18:00,0.554,0.839,0.509,1.030,0.754,0.328,0.581,0.539,��,9.4,��
2023/08/07,18:10,0.553,0.840,0.508,1.027,0.752,0.327,0.584,0.537,��쓌,9.2,��
2023/08/07,18:20,0.553,0.840,0.509,1.030,0.755,0.329,0.584,0.539,��쓌,8.8,��
2023/08/07,18:30,0.554,0.841,0.509,1.029,0.754,0.328,0.583,0.538,��,8.6,��
2023/08/07,18:40,0.555,0.839,0.509,1.031,0.754,0.328,0.583,0.539,��,9.2,��
2023/08/07,18:50,0.554,0.839,0.509,1.029,0.753,0.327,0.584,0.538,��,9.0,��
2023/08/07,19:00,0.555,0.839,0.511,1.029,0.754,0.328,0.584,0.538,��,8.6,��
2023/08/07,19:10,0.554,0.840,0.508,1.032,0.755,0.329,0.584,0.538,��,9.4,��
2023/08/07,19:20,0.554,0.839,0.511,1.030,0.756,0.328,0.584,0.539,��,8.7,��
2023/08/07,19:30,0.555,0.840,0.511,1.030,0.755,0.329,0.583,0.537,��,9.8,��
2023/08/07,19:40,0.554,0.840,0.509,1.029,0.756,0.329,0.584,0.539,��,9.2,��
2023/08/07,19:50,0.554,0.838,0.509,1.027,0.754,0.329,0.584,0.538,��,8.6,��
2023/08/07,20:00,0.553,0.839,0.509,1.028,0.755,0.329,0.584,0.538,��,8.1,��
2023/08/07,20:10,0.555,0.842,0.509,1.031,0.753,0.329,0.583,0.539,��,8.9,��
2023/08/07,20:20,0.553,0.839,0.509,1.029,0.756,0.329,0.583,0.538,��,8.9,��
2023/08/07,20:30,0.556,0.839,0.510,1.029,0.755,0.330,0.582,0.538,��,9.6,��
2023/08/07,20:40,0.553,0.840,0.510,1.030,0.754,0.331,0.584,0.539,��,8.3,��
2023/08/07,20:50,0.554,0.839,0.511,1.028,0.756,0.329,0.584,0.538,��,7.3,��
2023/08/07,21:00,0.553,0.838,0.509,1.031,0.756,0.328,0.582,0.539,��,6.7,��
2023/08/07,21:10,0.553,0.840,0.509,1.029,0.754,0.329,0.583,0.538,��,7.8,��
2023/08/07,21:20,0.554,0.840,0.510,1.029,0.756,0.329,0.583,0.539,��,7.1,��
2023/08/07,21:30,0.555,0.839,0.509,1.031,0.755,0.330,0.585,0.539,��,7.0,��
2023/08/07,21:40,0.556,0.838,0.508,1.033,0.756,0.329,0.584,0.540,��,7.8,��
2023/08/07,21:50,0.554,0.840,0.509,1.030,0.756,0.330,0.584,0.540,��,6.8,��
2023/08/07,22:00,0.554,0.839,0.509,1.031,0.755,0.329,0.583,0.538,��,7.0,��
2023/08/07,22:10,0.553,0.838,0.509,1.031,0.756,0.328,0.584,0.539,��,7.0,��
2023/08/07,22:20,0.554,0.841,0.509,1.031,0.754,0.330,0.583,0.538,��,7.3,��
2023/08/07,22:30,0.554,0.840,0.509,1.030,0.755,0.329,0.583,0.540,��,6.8,��
2023/08/07,22:40,0.554,0.839,0.510,1.031,0.754,0.328,0.584,0.539,��,6.7,��
2023/08/07,22:50,0.554,0.839,0.508,1.030,0.754,0.330,0.584,0.539,��,6.5,��
2023/08/07,23:00,0.554,0.840,0.508,1.029,0.753,0.327,0.582,0.539,��,6.6,��
2023/08/07,23:10,0.556,0.839,0.509,1.028,0.755,0.330,0.585,0.539,��,6.7,��
2023/08/07,23:20,0.554,0.838,0.509,1.029,0.754,0.329,0.584,0.539,��,7.0,��
2023/08/07,23:30,0.555,0.839,0.509,1.029,0.755,0.329,0.583,0.538,��,6.6,��
2023/08/07,23:40,0.555,0.838,0.509,1.029,0.754,0.329,0.583,0.539,��쓌,7.0,��
2023/08/07,23:50,0.553,0.838,0.510,1.029,0.753,0.329,0.584,0.538,��,7.0,��
